• Em Portugal
  • Lista de países
  • Para 7 dias
  • Temperatura da água
  • Mapas de satélite
  • Mapa do tempo
  • Widgets de tempo
  • user-avatar
    Iniciar Sessão

    Previsão horária em Szczytnica

    Hoje, 23 Setembro, Domingo

    Tempo Temperatura Precipitação Vento Pressão Humidade
    00:00 +12°C° 0 mm 3 m/s 747 mmHg 68%
    01:00 +12°C° 0 mm 4 m/s 746 mmHg 70%
    02:00 +12°C° 0 mm 4 m/s 746 mmHg 74%
    03:00 +11°C° 0 mm 3 m/s 746 mmHg 77%
    04:00 +11°C° 0 mm 3 m/s 746 mmHg 81%
    05:00 +11°C° 0 mm 3 m/s 746 mmHg 81%
    06:00 +11°C° 0 mm 3 m/s 746 mmHg 80%
    07:00 +11°C° 0 mm 3 m/s 745 mmHg 77%
    08:00 +12°C° 0 mm 3 m/s 745 mmHg 72%
    09:00 +13°C° 0 mm 3 m/s 745 mmHg 68%
    10:00 +14°C° 0 mm 3 m/s 745 mmHg 63%
    11:00 +14°C° 0.2 mm 3 m/s 744 mmHg 66%
    12:00 +14°C° 0.2 mm 3 m/s 744 mmHg 69%
    13:00 +14°C° 0 mm 2 m/s 743 mmHg 70%
    14:00 +14°C° 0.6 mm 2 m/s 741 mmHg 75%
    15:00 +12°C° 0.6 mm 3 m/s 740 mmHg 79%
    16:00 +12°C° 0.6 mm 4 m/s 739 mmHg 83%
    17:00 +12°C° 4.3 mm 4 m/s 738 mmHg 86%
    18:00 +12°C° 4.3 mm 5 m/s 736 mmHg 89%
    19:00 +11°C° 4.3 mm 6 m/s 735 mmHg 92%
    20:00 +10°C° 1.7 mm 5 m/s 736 mmHg 93%
    21:00 +9°C° 1.7 mm 5 m/s 736 mmHg 93%
    22:00 +8°C° 1.7 mm 4 m/s 737 mmHg 93%
    23:00 +8°C° 0.8 mm 5 m/s 738 mmHg 92%

    Amanhã, 24 Setembro, Segunda-feira

    Tempo Temperatura Precipitação Vento Pressão Humidade
    00:00 +8°C° 0.8 mm 6 m/s 740 mmHg 90%
    01:00 +6°C° 0.8 mm 7 m/s 741 mmHg 89%
    02:00 +6°C° 0.2 mm 7 m/s 743 mmHg 88%
    03:00 +6°C° 0.2 mm 7 m/s 744 mmHg 88%
    04:00 +6°C° 0.2 mm 7 m/s 745 mmHg 87%
    05:00 +6°C° 0.1 mm 7 m/s 746 mmHg 86%
    06:00 +6°C° 0.1 mm 8 m/s 747 mmHg 85%
    07:00 +6°C° 0.1 mm 8 m/s 747 mmHg 84%
    08:00 +6°C° 0.1 mm 8 m/s 748 mmHg 80%
    09:00 +7°C° 0.1 mm 8 m/s 749 mmHg 76%
    10:00 +7°C° 0.1 mm 8 m/s 750 mmHg 72%
    11:00 +8°C° 0.2 mm 9 m/s 750 mmHg 66%
    12:00 +10°C° 0.2 mm 9 m/s 750 mmHg 60%
    13:00 +11°C° 0.2 mm 9 m/s 751 mmHg 54%
    14:00 +11°C° 0.1 mm 9 m/s 751 mmHg 53%
    15:00 +11°C° 0.1 mm 9 m/s 751 mmHg 52%
    16:00 +10°C° 0.1 mm 8 m/s 751 mmHg 50%
    17:00 +9°C° 0 mm 7 m/s 752 mmHg 54%
    18:00 +8°C° 0 mm 6 m/s 752 mmHg 58%
    19:00 +7°C° 0 mm 5 m/s 753 mmHg 62%
    20:00 +7°C° 0 mm 5 m/s 753 mmHg 64%
    21:00 +6°C° 0 mm 4 m/s 754 mmHg 67%
    22:00 +6°C° 0 mm 4 m/s 755 mmHg 69%
    23:00 +5°C° 0 mm 4 m/s 755 mmHg 71%

    Depois de amanhã, 25 Setembro, Terça-feira

    Tempo Temperatura Precipitação Vento Pressão Humidade
    00:00 +5°C° 0 mm 4 m/s 756 mmHg 72%
    01:00 +5°C° 0 mm 4 m/s 756 mmHg 74%
    02:00 +5°C° 0 mm 4 m/s 756 mmHg 76%
    03:00 +4°C° 0 mm 4 m/s 757 mmHg 77%
    04:00 +4°C° 0 mm 4 m/s 757 mmHg 79%
    05:00 +4°C° 0 mm 4 m/s 758 mmHg 79%
    06:00 +4°C° 0 mm 4 m/s 758 mmHg 79%
    07:00 +4°C° 0 mm 4 m/s 759 mmHg 79%
    08:00 +6°C° 0 mm 4 m/s 759 mmHg 72%
    09:00 +7°C° 0 mm 4 m/s 759 mmHg 65%
    10:00 +10°C° 0 mm 4 m/s 760 mmHg 59%
    11:00 +11°C° 0 mm 4 m/s 760 mmHg 55%
    12:00 +12°C° 0 mm 4 m/s 760 mmHg 50%
    13:00 +12°C° 0 mm 4 m/s 760 mmHg 46%
    14:00 +12°C° 0 mm 4 m/s 760 mmHg 46%
    15:00 +12°C° 0 mm 4 m/s 760 mmHg 46%
    16:00 +12°C° 0 mm 4 m/s 760 mmHg 46%
    17:00 +11°C° 0 mm 3 m/s 760 mmHg 52%
    18:00 +9°C° 0 mm 2 m/s 760 mmHg 58%
    19:00 +7°C° 0 mm 2 m/s 761 mmHg 64%
    20:00 +7°C° 0 mm 2 m/s 761 mmHg 65%
    21:00 +7°C° 0 mm 2 m/s 761 mmHg 67%
    22:00 +6°C° 0 mm 2 m/s 761 mmHg 68%
    23:00 +6°C° 0 mm 2 m/s 761 mmHg 69%

    26 Setembro, Quarta-feira

    Tempo Temperatura Precipitação Vento Pressão Humidade
    00:00 +6°C° 0 mm 2 m/s 761 mmHg 69%
    01:00 +5°C° 0 mm 2 m/s 761 mmHg 70%
    02:00 +5°C° 0 mm 2 m/s 761 mmHg 70%
    03:00 +5°C° 0 mm 2 m/s 761 mmHg 70%
    04:00 +5°C° 0 mm 2 m/s 760 mmHg 70%
    05:00 +5°C° 0 mm 2 m/s 760 mmHg 69%
    06:00 +5°C° 0 mm 2 m/s 760 mmHg 68%
    07:00 +6°C° 0 mm 2 m/s 760 mmHg 67%
    08:00 +8°C° 0 mm 3 m/s 760 mmHg 59%
    09:00 +10°C° 0 mm 3 m/s 759 mmHg 51%
    10:00 +12°C° 0 mm 4 m/s 759 mmHg 44%
    11:00 +13°C° 0 mm 4 m/s 759 mmHg 42%
    12:00 +14°C° 0 mm 4 m/s 758 mmHg 40%
    13:00 +15°C° 0 mm 4 m/s 758 mmHg 37%
    14:00 +15°C° 0 mm 4 m/s 757 mmHg 38%
    15:00 +15°C° 0 mm 4 m/s 756 mmHg 40%
    16:00 +15°C° 0 mm 4 m/s 756 mmHg 41%
    17:00 +14°C° 0 mm 4 m/s 756 mmHg 44%
    18:00 +12°C° 0 mm 4 m/s 755 mmHg 47%
    19:00 +11°C° 0 mm 3 m/s 755 mmHg 50%
    20:00 +11°C° 0 mm 4 m/s 755 mmHg 50%
    21:00 +11°C° 0 mm 4 m/s 755 mmHg 50%
    22:00 +11°C° 0 mm 4 m/s 755 mmHg 49%
    23:00 +11°C° 0 mm 4 m/s 755 mmHg 50%

    27 Setembro, Quinta-feira

    Tempo Temperatura Precipitação Vento Pressão Humidade
    00:00 +11°C° 0 mm 4 m/s 755 mmHg 51%
    01:00 +11°C° 0 mm 4 m/s 754 mmHg 52%
    02:00 +11°C° 0 mm 4 m/s 754 mmHg 53%
    03:00 +11°C° 0 mm 4 m/s 754 mmHg 53%
    04:00 +10°C° 0 mm 4 m/s 754 mmHg 53%
    05:00 +11°C° 0 mm 4 m/s 754 mmHg 54%
    06:00 +11°C° 0 mm 4 m/s 754 mmHg 55%
    07:00 +11°C° 0 mm 4 m/s 754 mmHg 55%
    08:00 +13°C° 0 mm 4 m/s 754 mmHg 53%
    09:00 +15°C° 0 mm 4 m/s 754 mmHg 52%
    10:00 +17°C° 0 mm 5 m/s 754 mmHg 50%
    11:00 +19°C° 0 mm 5 m/s 753 mmHg 50%
    12:00 +20°C° 0 mm 5 m/s 753 mmHg 51%
    13:00 +21°C° 0 mm 5 m/s 752 mmHg 51%
    14:00 +21°C° 0 mm 4 m/s 752 mmHg 52%
    15:00 +21°C° 0 mm 4 m/s 751 mmHg 53%
    16:00 +21°C° 0 mm 4 m/s 751 mmHg 54%
    17:00 +20°C° 0 mm 3 m/s 750 mmHg 59%
    18:00 +18°C° 0 mm 3 m/s 750 mmHg 64%
    19:00 +16°C° 0 mm 3 m/s 750 mmHg 69%
    20:00 +16°C° 0 mm 3 m/s 750 mmHg 67%
    21:00 +16°C° 0 mm 3 m/s 750 mmHg 66%
    22:00 +14°C° 0 mm 3 m/s 749 mmHg 64%
    23:00 +14°C° 0 mm 3 m/s 749 mmHg 64%

    28 Setembro, Sexta-feira

    Tempo Temperatura Precipitação Vento Pressão Humidade
    00:00 +14°C° 0 mm 3 m/s 749 mmHg 64%
    01:00 +14°C° 0 mm 3 m/s 748 mmHg 64%
    02:00 +13°C° 0 mm 3 m/s 748 mmHg 66%
    03:00 +12°C° 0 mm 3 m/s 748 mmHg 67%
    04:00 +12°C° 0 mm 3 m/s 748 mmHg 69%
    05:00 +12°C° 0.1 mm 3 m/s 748 mmHg 70%
    06:00 +12°C° 0.1 mm 3 m/s 749 mmHg 72%
    07:00 +12°C° 0.1 mm 3 m/s 749 mmHg 74%
    08:00 +12°C° 0.2 mm 3 m/s 749 mmHg 77%
    09:00 +12°C° 0.2 mm 3 m/s 750 mmHg 79%
    10:00 +13°C° 0.2 mm 2 m/s 750 mmHg 82%
    11:00 +13°C° 0.1 mm 2 m/s 750 mmHg 80%
    12:00 +14°C° 0.1 mm 2 m/s 750 mmHg 79%
    13:00 +14°C° 0.1 mm 1 m/s 750 mmHg 77%
    14:00 +14°C° 0 mm 1 m/s 750 mmHg 75%
    15:00 +14°C° 0 mm 2 m/s 750 mmHg 74%
    16:00 +14°C° 0 mm 2 m/s 750 mmHg 73%
    17:00 +13°C° 0 mm 2 m/s 751 mmHg 75%
    18:00 +13°C° 0 mm 1 m/s 751 mmHg 77%
    19:00 +12°C° 0 mm 1 m/s 751 mmHg 79%
    20:00 +11°C° 0 mm 1 m/s 752 mmHg 79%
    21:00 +11°C° 0 mm 1 m/s 752 mmHg 80%
    22:00 +10°C° 0 mm 1 m/s 752 mmHg 81%
    23:00 +10°C° 0 mm 1 m/s 752 mmHg 81%
    Mostrar mais